Tracking 35274 objects as of 12-Sep-2026
HD Live streaming from Space Station
objects crossing your sky now

COSMOS 886 DEB

Track COSMOS 886 DEB now!
10-day predictions


NORAD ID: 19475
Int'l Code: 1976-126CD
Launch date: December 27, 1976
Source: Commonwealth of Independent States (former USSR) (CIS)
Launch site: TYURATAM MISSILE AND SPACE COMPLEX (TTMTR)

Note: This is SATELLITE DEBRIS
Your satellite tracking list
Your tracking list is empty




NASA's NSSDC Master Catalog

Two Line Element Set (TLE):
1 19475U 76126CD  26254.09278273  .00001153  00000-0  57527-3 0  9994
2 19475  65.8514 149.8871 0795430 182.8238 176.8168 13.18542026720946
Source of the keplerian elements: AFSPC